Погода Мыс Шведский

Погода Мыс Шведский : погода сейчас, прогноз погоды и архив. Всё, что Вы хотите узнать о погоде Мыс Шведский!

Хотите узнать прогноз погоды Мыс Шведский? Тогда Вам сюда: Погода Мыс Шведский

Поиск расширенной информации на нашем сайте:

Полезная информация: Смотрите информацию миксер китчен айд здесь.

Другие новости

Новости СМИ2

Главная страница сайта

Новости сайта

02.10.2013

Напоминаем, что на нашем новом сайте вы можете получить высокодетализированные прогнозы погоды по пунктам России, СНГ и мира (включающие важные для авиации метеовеличины, такие как направление и скорость ветра, видимость, явления погоды, количество и форма облачности, нижняя и верхняя граница облачности), а также ознакомиться с разнообразными материалами по авиационной метеорологии и подборкой полезных ссылок на эту тему.

Сайт Метеоцентр.Азия посвящён разработке технологий оптимизации авиаметеорологического обслуживания, включая проектирование и перспективное создание нескольких автоматизированных авиаметеорологических систем:
- система выпуска высокодетальных прогностических карт явлений погоды для нижнего воздушного пространства по России и ближнему зарубежью;
- система верификации прогнозов TAF (выпускаемых синоптиками официальных АМСГ РФ и ближнего зарубежья) и AUTOTAF (выпускаемых сайтом Метеоцентр.Азия) - выявление ошибок, онлайн-сопоставление с фактической погодой METAR, автоматическое внесение коррективов в прогнозы при резком отклонении фактической погоды от прогноза, подсчёт оправдываемости прогнозов по элементам и в целом;
- система обработки, анализа и отображения авиаметеорологической информации для применения провайдерами метеорологической информации.

Рекомендуем: Радуга бисера кроше наборы для вышивания бисером иконы.

Погода Мыс Шведский - сегодня

Время (UTC), дата Ветер
(°,м/с) 
Видим.   Явления Облачность Т
(°С)
Тd
(°С)
f(%) Тe
(°С)
Pmin
(гПа)
dP
(гПа)
Po
(мм)
O2
(г/м3)
Тmin Tmax R s Состояние
почвы
21 16.01.17 260 (З) 0200 м  переохл. туман{ливн. осадки}  ясно 
-13.2 -13.8 95 -17  1018.5  1.1  763  324           
00 17.01.17 280 (З) 0200 м  переохл. туман{ливн. осадки}  ?/?  
-9.7 -10.1 97 -11  1020.1  1.6  764  320           
06 17.01.17 250 (З) 0200 м  переохл. туман  ?/?  
-8.1 -8.3 98 -12  1021.3  0.6  765  319           
09 17.01.17 230 (ЮЗ) 0200 м  переохл. туман  10/10 300 м 
[St]
-9.8 -10.2 97 -15  1022.1  0.8  766  321           
18 17.01.17 240 (ЮЗ) 10 км  [диам. изморози 30 мм]  10/10 300 м 
[Sc]
-9.2 -10.3 92 -12  1020.4  -1.5  765  320           
21 17.01.17 230 (ЮЗ) 8-10{10}  10 км  позёмок [диам. изморози 30 мм]  10/10 300 м 
[Sc]
-6.5 -7.7 91 -12  1018.2  -2.2  763  316           
00 18.01.17 220 (ЮЗ) 8-10{11}  10 км  позёмок  9/6 300 м средняя, верхняя 
[Sc|Ac trans|Cs]
-7.6 -9 90 -13  1015.8  -2.4  761  316           
06 18.01.17 240 (ЮЗ) 11-13{15}  0200 м  сильная метель  10/10 300 м 
[Sc]
-7.5 -8.8 90 -14  1010.2  -3  757  315           
09 18.01.17 250 (З) 12-15{16}  0200 м  сильная метель  10/10 300 м 
[Sc]
+8.4 -9.9 26 +5  1008.3  -1.9  756  296           
12 18.01.17 240 (ЮЗ) 14-16{19}  0200 м  сильная метель  10/10 300 м 
[Sc]
-8.6 -9.7 92 -17  1006.7  -1.6  754  315           
15 18.01.17 230 (ЮЗ) 15-17{20}  <0050 м  сильная метель  ?/?  
-9.1 -10.2 92 -18  1005.5  -1.2  753  315    -7.3  0.3     
18 18.01.17 230 (ЮЗ) 14-16{19}  <0050 м  сильная метель  ?/?  
-9 -10.6 88 -17  1004.9  -0.6  753  315           
21 18.01.17 230 (ЮЗ) 13-15{18}  <0050 м  сильная метель  ?/?  
-8.7 -9.8 92 -17  1004.1  -0.8  752  314           
00 19.01.17 230 (ЮЗ) 11-13{16}  0200 м  сильная метель  ?/?  
-8.6 -9.7 92 -16  1003.1  -1  752  314           
06 19.01.17 210 (ЮЗ) 8{14}  10 км  позёмок  10/10 300 м 
[Sc]
-7.7 -9.1 90 -14  998.2  -2.7  748  311           
09 19.01.17 200 (Ю) 12-15{16}  0200 м  слаб. ливневой снег  9/6 300 м кучево-дожд., верхняя 
[Cb cap|Cs]
-10.3 -11.6 90 -18  993.4  -4.8  744  313           
15 19.01.17 200 (Ю) 16-19{20}  <0050 м  сильная метель{ливн. осадки}  ?/?  
-11.4 -12.7 90 -21  982.2  -5.3  736  311    -7.7     
18 19.01.17 190 (Ю) 15-18{20}  <0050 м  сильная метель{ливн. осадки}  ?/?  
-11.3 -12.6 90 -21  977.7  -4.5  733  309           
21 19.01.17 190 (Ю) 15-19{20}  <0050 м  сильная метель  ?/?  
-10.1 -11.4 90 -19  973.1  -4.5  729  306           
00 20.01.17 200 (Ю) 13-16{20}  <0050 м  сильная метель  ?/?  
-7.3 -8.6 90 -15  970.4  -2.7  727  302           
06 20.01.17 250 (З) 12-14{17}  0200 м  сильная метель  10/10 300 м 
[Sc]
-4.6 -5.5 93 -11  967.3  -1.1  725  298           
09 20.01.17 290 (З) 12-15{19}  0200 м  слаб. ливневой снег  10/10 300 м кучево-дожд. 
[Cb cap]
-4.6 -5.2 96 -11  970.1  2.8  727  298           
12 20.01.17 280 (З) 11-12{16}  0200 м  слаб. ливневой снег  9/8 300 м кучево-дожд., верхняя 
[Cb cap|Cs]
-4.6 -5.9 91 -11  973.5  3.4  730  300           
15 20.01.17 280 (З) 8-10{14}  10 км  позёмок{ливн. осадки}  3/3 300 м кучево-дожд. 
[Cb cap]
-6.3 -7.9 88 -12  975.5  731  302    -4.3  0.6     
18 20.01.17 260 (З) 8{11}  10 км  позёмок{ливн. осадки}  ясно 
-10.5 -12.5 85 -17  977.2  1.6  732  308           
Время (UTC), дата Ветер
(°,м/с) 
Видим.   Явления Облачность Т
(°С)
Тd
(°С)
f(%) Тe
(°С)
Pmin
(гПа)
dP
(гПа)
Po
(мм)
O2
(г/м3)
Тmin Tmax R s Состояние
почвы

Для получения пояснительной информации подведите курсор к названию столбца.

ПОГОДА Мыс Шведский - архив

Всё, что Вы хотите узнать о погоде Мыс Шведский - удобно и подробно!

Выберите нужную дату (начиная с 1 января 2015* года) и нажмите кнопку "Найти".
Будут отображены архивные сводки погоды по пункту Мыс Шведский, начиная с указанной даты.


Отображать данные в формате CSV (для использования в таблицах Excel)


Внимание! Наш архив погоды предназначен исключительно для личного некоммерческого использования в познавательных целях. Если Вам необходимы официальные справки о состоянии погоды (для производственных, юридических, коммерческих и т.п. целей), обращайтесь в органы Росгидромета.

*Примечание: данная дата относится к архиву по метеостанциям СССР (Россия, СНГ, Балтия).
Архив по метеостанциям Зарубежной Европы и Азии (кроме Китая) хранится 10 дней, по другим регионам земного шара (Китай, Африка, Америка, Австралия, Океания) - 1 день.

Мыс Шведский - район местоположения метеостанции


Название, широта, долгота, высота метеостанции:
Мыс Шведский 68.6°ш. 56.6°д. 4 м над ур. моря [Российская Федерация]

Дополнительная информация

В oтличие oт бoльшинства пoгoдных сайтoв мы публикуем пoдрoбную метеoинфoрмацию в детальнoм прoфессиoнальнoм фoрмате.

Характеристики температуры и влажнoсти вoздуха измеряются на высoте 2 м в тени вдали oт зданий и деревьев.
Скoрoсть ветра измеряется на высoте 10 м (на урoвне рoста челoвека скoрoсть ветра ниже в 1.5-2 раза). Если метеoстанция нахoдится в гoрoде или в лесу, тo скoрoсть ветра занижена на 2-4 м/с пo сравнению с oткрытым местoм. Скoрoсть ветра над акватoриями крупных рек и oзёр, а также на вершинах хoлмoв на 2-5 м/с выше, чем в oбычных услoвиях.
Атмoсфернoе давление в разных тoчках местнoсти мoжет значительнo oтличаться oт давления на метеoстанции, в зависимoсти oт услoвий рельефа (при пoдъёме на 10 м давление пoнижается примернo на 1 мм рт.ст.).